Location: Mahannah Oil Field
(37.4664°N, 96.6003°W)
Time: 14:36:23
(UTC+00:00)

Explorer 11/Cluster Stage 4 - All Passes

Search period start: 23 January 2021 00:00
Search period end: 02 February 2021 00:00
Orbit: 467 x 1258 km, 28.8° (Epoch: 22 January)

Date Brightness Start Highest point End Pass type
(mag) Time Alt. Az. Time Alt. Az. Time Alt. Az.
23 Jan - 01:44:44 10° SSE 01:46:31 11° SSE 01:48:25 10° SE visible
23 Jan - 03:28:49 10° SW 03:34:14 30° SSE 03:40:35 10° ESE visible
23 Jan - 05:16:06 10° WSW 05:22:41 43° S 05:30:12 10° ESE night (unlit)
23 Jan - 07:04:29 10° WSW 07:11:29 38° SSW 07:18:56 10° SE night (unlit)
23 Jan - 08:54:11 10° WSW 09:00:04 22° SSW 09:05:57 10° SSE night (unlit)
24 Jan - 01:33:08 10° S 01:35:25 12° SSE 01:37:52 10° SE visible
24 Jan - 03:17:50 10° SW 03:23:07 31° SSE 03:29:23 10° ESE visible
24 Jan - 05:05:10 10° WSW 05:11:33 43° S 05:18:57 10° ESE night (unlit)
24 Jan - 06:53:33 10° WSW 07:00:18 36° SSW 07:07:36 10° SE night (unlit)
24 Jan - 08:43:26 10° WSW 08:48:50 20° SSW 08:54:19 10° SSE night (unlit)
25 Jan - 01:21:45 10° S 01:24:19 13° SSE 01:27:07 10° ESE visible
25 Jan - 03:06:53 10° SW 03:12:02 32° SSE 03:18:11 10° ESE visible
25 Jan - 04:54:16 10° WSW 05:00:26 42° S 05:07:39 10° ESE night (unlit)
25 Jan - 06:42:40 10° WSW 06:49:07 33° SSW 06:56:12 10° SE night (unlit)
25 Jan - 08:32:48 10° WSW 08:37:37 17° SSW 08:42:32 10° S night (unlit)
26 Jan - 01:10:30 10° S 01:13:15 14° SSE 01:16:17 10° ESE visible
26 Jan - 02:56:00 10° SW 03:00:58 33° SSE 03:06:58 10° ESE visible
26 Jan - 04:43:25 10° WSW 04:49:19 40° S 04:56:21 10° ESE night (unlit)
26 Jan - 06:31:50 10° WSW 06:37:57 30° SSW 06:44:44 10° SE night (unlit)
26 Jan - 08:22:22 10° WSW 08:26:24 15° SSW 08:30:33 10° S night (unlit)
27 Jan - 00:59:21 10° S 01:02:12 15° SSE 01:05:22 10° ESE visible
27 Jan - 02:45:08 10° SW 02:49:56 33° SSE 02:55:45 10° ESE visible
27 Jan - 04:32:35 10° WSW 04:38:15 38° S 04:45:01 10° ESE night (unlit)
27 Jan - 06:21:04 10° WSW 06:26:48 27° SSW 06:33:14 10° SE night (unlit)
27 Jan - 08:12:16 10° SW 08:15:12 12° SSW 08:18:13 10° S night (unlit)
28 Jan - 00:48:16 10° SSW 00:51:10 16° SSE 00:54:26 10° ESE visible
28 Jan - 02:34:18 10° SW 02:38:55 33° S 02:44:32 10° ESE visible
28 Jan - 04:21:48 10° WSW 04:27:11 36° S 04:33:40 10° ESE night (unlit)
28 Jan - 06:10:22 10° WSW 06:15:40 24° SSW 06:21:38 10° SSE night (unlit)
29 Jan - 00:37:15 10° SSW 00:40:10 17° SSE 00:43:29 10° ESE visible
29 Jan - 02:23:30 10° SW 02:27:55 33° S 02:33:19 10° ESE visible
29 Jan - 04:11:03 10° WSW 04:16:09 33° S 04:22:17 10° SE night (unlit)
29 Jan - 05:59:45 10° WSW 06:04:33 21° SSW 06:09:57 10° SSE night (unlit)
30 Jan - 00:26:17 10° SSW 00:29:12 18° SSE 00:32:30 10° ESE visible
30 Jan - 02:12:43 10° WSW 02:16:57 32° S 02:22:06 10° ESE visible
30 Jan - 04:00:20 10° WSW 04:05:08 30° S 04:10:53 10° SE night (unlit)
30 Jan - 05:49:15 10° WSW 05:53:28 18° SSW 05:58:10 10° SSE night (unlit)
31 Jan - 00:15:21 10° SSW 00:18:15 19° SSE 00:21:32 10° ESE visible
31 Jan - 02:01:58 10° WSW 02:06:00 31° S 02:10:53 10° ESE visible
31 Jan - 03:49:40 10° WSW 03:54:08 27° S 03:59:27 10° SE visible
31 Jan - 05:38:57 10° SW 05:42:24 15° SSW 05:46:12 10° SSE night (unlit)
01 Feb - 00:04:26 10° SSW 00:07:19 19° SSE 00:10:33 10° ESE daylight
01 Feb - 01:51:15 10° WSW 01:55:05 29° S 01:59:40 10° ESE visible
01 Feb - 03:39:03 10° WSW 03:43:08 24° S 03:47:59 10° SE visible
01 Feb - 05:28:58 10° SW 05:31:21 12° SSW 05:33:52 10° S night (unlit)
01 Feb - 23:53:33 10° SW 23:56:25 20° SSE 23:59:35 10° ESE daylight
